Location: Dallas
(32.7833°N, 96.8000°W)
Time: 14:18:45
(UTC-05:00)

Envisat - Pass Details

Date: 02 July 2022
Orbit: 763 x 765 km, 98.2° (Epoch: 07 August)

Event Time Altitude Azimuth Distance (km) Brightness Sun altitude
Rises 05:12:23 0° 24° (NNE) 3,233 7.5 -13.2°
Reaches altitude 10° 05:14:56 10° 35° (NE) 2,303 6.8 -12.8°
Maximum altitude 05:19:26 32° 97° (E) 1,298 4.7 -12.1°
Drops below altitude 10° 05:23:54 10° 160° (SSE) 2,289 5.3 -11.3°
Sets 05:26:25 0° 170° (S) 3,211 6.0 -10.9°
